DW1980 Weather Reports


time (UTC)temp
C
wind
direction
speed
KPH
gust
KPH
rain 1hr
cm
rain 24hr
cm
rain mn
cm
humidity
%
barometer
mb
20210518193352 27 261 4.8 14.5 0.00 0.00 0.00 34 1024.6
20210518192840 27 291 3.2 14.5 0.00 0.00 0.00 32 1024.7
20210518192350 27 246 1.6 6.4 0.00 0.00 0.00 34 1024.7
20210518191841 27 281 0.0 9.7 0.00 0.00 0.00 31 1024.8
20210518191352 27 281 1.6 9.7 0.00 0.00 0.00 33 1024.9
20210518190843 27 221 4.8 9.7 0.00 0.00 0.00 33 1025.1
20210518190351 27 273 1.6 16.1 0.00 0.00 0.00 36 1025.2
20210518185837 27 273 4.8 16.1 0.00 0.00 0.00 35 1025.2
20210518185347 27 277 4.8 14.5 0.00 0.00 0.00 33 1025.3
20210518184836 27 284 3.2 12.9 0.00 0.00 0.00 33 1025.3
20210518184346 27 279 3.2 12.9 0.00 0.00 0.00 35 1025.3
20210518183838 27 217 3.2 14.5 0.00 0.00 0.00 34 1025.3
20210518183350 27 219 4.8 14.5 0.00 0.00 0.00 36 1025.5
20210518182837 27 248 3.2 19.3 0.00 0.00 0.00 36 1025.6
20210518182347 27 277 6.4 19.3 0.00 0.00 0.00 35 1025.6
20210518181837 27 240 1.6 4.8 0.00 0.00 0.00 36 1025.6
20210518181347 27 240 3.2 6.4 0.00 0.00 0.00 35 1025.7
20210518180841 27 240 3.2 16.1 0.00 0.00 0.00 34 1025.7
20210518180349 27 286 4.8 16.1 0.00 0.00 0.00 35 1025.7
20210518175856 27 276 1.6 16.1 0.00 0.00 0.00 39 1025.8
20210518175344 27 110 4.8 16.1 0.00 0.00 0.00 35 1025.9
20210518174852 27 236 3.2 11.3 0.00 0.00 0.00 34 1026.0
20210518174342 27 229 3.2 11.3 0.00 0.00 0.00 35 1026.1
20210518173853 27 213 6.4 12.9 0.00 0.00 0.00 38 1026.1
20210518173341 27 275 1.6 11.3 0.00 0.00 0.00 37 1026.3
20210518172847 27 355 3.2 14.5 0.00 0.00 0.00 37 1026.4
20210518172335 27 258 1.6 12.9 0.00 0.00 0.00 40 1026.4
20210518171845 27 101 1.6 17.7 0.00 0.00 0.00 38 1026.4
20210518171336 27 323 6.4 17.7 0.00 0.00 0.00 36 1026.5
20210518170847 27 304 4.8 20.9 0.00 0.00 0.00 38 1026.7
20210518170357 26 275 4.8 20.9 0.00 0.00 0.00 40 1026.7
20210518165844 26 283 8.0 20.9 0.00 0.00 0.00 40 1026.8
20210518165335 26 312 1.6 16.1 0.00 0.00 0.00 38 1026.8
20210518164845 26 225 3.2 16.1 0.00 0.00 0.00 43 1026.8
20210518164354 26 249 4.8 12.9 0.00 0.00 0.00 44 1026.9
20210518163844 26 288 6.4 12.9 0.00 0.00 0.00 43 1026.9
20210518163357 26 9 3.2 6.4 0.00 0.00 0.00 42 1027.0
20210518162843 26 342 0.0 17.7 0.00 0.00 0.00 45 1027.2
20210518162353 26 286 8.0 17.7 0.00 0.00 0.00 44 1027.3
20210518161844 26 269 0.0 8.0 0.00 0.00 0.00 44 1027.3
20210518161354 26 237 3.2 8.0 0.00 0.00 0.00 43 1027.4
20210518160845 26 301 1.6 12.9 0.00 0.00 0.00 49 1027.5
20210518160357 25 286 4.8 12.9 0.00 0.00 0.00 47 1027.7
20210518155844 25 265 6.4 14.5 0.00 0.00 0.00 45 1027.7
20210518155337 25 277 3.2 14.5 0.00 0.00 0.00 46 1027.7
20210518154846 25 250 3.2 12.9 0.00 0.00 0.00 47 1027.8
20210518154355 25 261 3.2 20.9 0.00 0.00 0.00 49 1027.8
20210518153845 25 254 6.4 20.9 0.00 0.00 0.00 45 1027.8
20210518153356 25 209 1.6 19.3 0.00 0.00 0.00 46 1027.7
20210518152844 25 296 6.4 19.3 0.00 0.00 0.00 45 1027.7
20210518152353 25 263 0.0 12.9 0.00 0.00 0.00 47 1027.7
20210518151844 25 324 3.2 22.5 0.00 0.00 0.00 45 1027.8
20210518151354 24 275 6.4 20.9 0.00 0.00 0.00 48 1027.8
20210518150843 24 277 6.4 17.7 0.00 0.00 0.00 48 1027.9
20210518150355 24 267 4.8 12.9 0.00 0.00 0.00 48 1027.9
20210518145843 23 279 3.2 16.1 0.00 0.00 0.00 51 1027.9
20210518145354 23 302 4.8 16.1 0.00 0.00 0.00 50 1027.9
20210518144844 23 275 3.2 11.3 0.00 0.00 0.00 53 1027.9
20210518144335 23 265 1.6 9.7 0.00 0.00 0.00 51 1028.0
20210518143846 22 223 3.2 6.4 0.00 0.00 0.00 54 1028.0
20210518143358 22 199 1.6 8.0 0.00 0.00 0.00 52 1027.9
20210518142844 22 294 1.6 11.3 0.00 0.00 0.00 53 1028.0
20210518142354 22 259 3.2 14.5 0.00 0.00 0.00 53 1028.0
20210518141845 22 290 3.2 14.5 0.00 0.00 0.00 51 1028.0
20210518141355 22 263 3.2 11.3 0.00 0.00 0.00 52 1028.0
20210518140844 21 265 3.2 16.1 0.00 0.00 0.00 52 1028.0
20210518140356 21 265 6.4 19.3 0.00 0.00 0.00 53 1028.0
20210518135844 21 276 8.0 17.7 0.00 0.00 0.00 56 1028.1
20210518135354 20 280 8.0 16.1 0.00 0.00 0.00 55 1028.1
20210518134845 20 278 1.6 6.4 0.00 0.00 0.00 59 1028.1
20210518134340 20 275 1.6 9.7 0.00 0.00 0.00 56 1028.1
20210518133849 20 275 1.6 16.1 0.00 0.00 0.00 55 1028.0
20210518133340 20 298 4.8 16.1 0.00 0.00 0.00 55 1028.0
20210518132846 20 276 1.6 11.3 0.00 0.00 0.00 57 1028.1
20210518132356 20 252 3.2 14.5 0.00 0.00 0.00 55 1028.1
20210518131843 20 285 6.4 17.7 0.00 0.00 0.00 57 1028.1
20210518131353 20 265 3.2 17.7 0.00 0.00 0.00 58 1028.0
20210518130841 19 297 8.0 17.7 0.00 0.00 0.00 58 1028.1
20210518130351 19 261 6.4 16.1 0.00 0.00 0.00 62 1028.1
20210518125855 19 279 4.8 14.5 0.00 0.00 0.00 59 1028.1
20210518125344 18 262 4.8 17.7 0.00 0.00 0.00 60 1028.2
20210518124854 18 265 9.7 17.7 0.00 0.00 0.00 63 1028.1
20210518124343 18 293 3.2 14.5 0.00 0.00 0.00 62 1028.1
20210518123854 18 314 6.4 14.5 0.00 0.00 0.00 66 1028.0
20210518123346 17 294 3.2 14.5 0.00 0.00 0.00 67 1028.0
20210518122853 17 296 8.0 14.5 0.00 0.00 0.00 67 1028.1
20210518122343 17 288 4.8 14.5 0.00 0.00 0.00 69 1028.0
20210518121854 16 277 1.6 12.9 0.00 0.00 0.00 74 1028.0
20210518121345 15 294 0.0 12.9 0.00 0.00 0.00 76 1028.0
20210518120836 14 294 3.2 12.9 0.00 0.00 0.00 81 1028.0
20210518120347 13 270 4.8 11.3 0.00 0.00 0.00 90 1028.0
20210518115853 12 270 4.8 14.5 0.00 0.00 0.00 96 1028.0
20210518115344 11 5 0.0 4.8 0.00 0.00 0.00 96 1028.0
20210518114854 11 5 0.0 3.2 0.00 0.00 0.00 96 1027.9
20210518114346 11 5 0.0 1.6 0.00 0.00 0.00 96 1028.0
20210518113856 10 5 0.0 0.0 0.00 0.00 0.00 95 1028.0
20210518113345 10 5 0.0 0.0 0.00 0.00 0.00 95 1028.0
20210518112836 10 5 0.0 0.0 0.00 0.00 0.00 95 1027.9
20210518112347 10 5 0.0 0.0 0.00 0.00 0.00 95 1027.9
20210518111857 10 274 0.0 1.6 0.00 0.00 0.00 95 1027.9
20210518111346 9 274 0.0 1.6 0.00 0.00 0.00 95 1027.8
20210518110836 9 267 0.0 0.0 0.00 0.00 0.00 95 1027.7
20210518110347 8 267 0.0 0.0 0.00 0.00 0.00 95 1027.6
20210518105853 8 267 0.0 0.0 0.00 0.00 0.00 95 1027.5
20210518105344 8 267 0.0 0.0 0.00 0.00 0.00 94 1027.5
20210518104854 8 267 0.0 0.0 0.00 0.00 0.00 94 1027.4
20210518104344 8 267 0.0 0.0 0.00 0.00 0.00 94 1027.4
20210518103855 8 267 0.0 0.0 0.00 0.00 0.00 94 1027.4
20210518103346 8 267 0.0 0.0 0.00 0.00 0.00 94 1027.3
20210518102852 8 267 0.0 0.0 0.00 0.00 0.00 94 1027.3
20210518102342 8 267 0.0 0.0 0.00 0.00 0.00 94 1027.2
20210518101852 8 267 0.0 0.0 0.00 0.00 0.00 94 1027.3
20210518101342 8 267 0.0 0.0 0.00 0.00 0.00 94 1027.2
20210518100852 8 267 0.0 0.0 0.00 0.00 0.00 94 1027.1
20210518100343 8 267 0.0 0.0 0.00 0.00 0.00 94 1027.1
20210518095851 8 267 0.0 0.0 0.00 0.00 0.00 94 1027.0
20210518095340 8 267 0.0 0.0 0.00 0.00 0.00 94 1026.9
20210518094849 8 267 0.0 0.0 0.00 0.00 0.00 94 1026.9
20210518094340 8 267 0.0 0.0 0.00 0.00 0.00 94 1026.8
20210518093850 8 267 0.0 0.0 0.00 0.00 0.00 94 1026.8
20210518093340 8 267 0.0 0.0 0.00 0.00 0.00 94 1026.8
20210518092847 8 267 0.0 0.0 0.00 0.00 0.00 94 1026.8
20210518092337 8 267 0.0 0.0 0.00 0.00 0.00 94 1026.8
20210518091847 8 267 0.0 0.0 0.00 0.00 0.00 94 1026.8
20210518091341 8 267 0.0 0.0 0.00 0.00 0.00 94 1026.8
20210518090850 8 267 0.0 0.0 0.00 0.00 0.00 94 1026.8
20210518090341 8 267 0.0 0.0 0.00 0.00 0.00 94 1026.7
20210518085848 8 267 0.0 0.0 0.00 0.00 0.00 94 1026.7
20210518085337 8 267 0.0 0.0 0.00 0.00 0.00 94 1026.7
20210518084848 8 267 0.0 0.0 0.00 0.00 0.00 94 1026.7
20210518084340 8 267 0.0 0.0 0.00 0.00 0.00 94 1026.6
20210518083849 8 267 0.0 0.0 0.00 0.00 0.00 93 1026.6
20210518083339 8 267 0.0 0.0 0.00 0.00 0.00 93 1026.6
20210518082845 8 267 0.0 0.0 0.00 0.00 0.00 93 1026.6
20210518082335 8 267 0.0 0.0 0.00 0.00 0.00 93 1026.6
20210518081846 8 267 0.0 0.0 0.00 0.00 0.00 93 1026.5
20210518081337 8 267 0.0 0.0 0.00 0.00 0.00 93 1026.5
20210518080847 8 267 0.0 0.0 0.00 0.00 0.00 93 1026.5
20210518080358 8 267 0.0 0.0 0.00 0.00 0.00 93 1026.5
20210518075843 8 267 0.0 0.0 0.00 0.00 0.00 93 1026.4
20210518075353 8 267 0.0 0.0 0.00 0.00 0.00 93 1026.4
20210518074842 8 267 0.0 0.0 0.00 0.00 0.00 93 1026.4
20210518074354 8 267 0.0 0.0 0.00 0.00 0.00 93 1026.5
20210518073844 8 267 0.0 0.0 0.00 0.00 0.00 93 1026.4
20210518073355 8 267 0.0 0.0 0.00 0.00 0.00 93 1026.3
20210518072841 8 267 0.0 0.0 0.00 0.00 0.00 93 1026.5
20210518072351 8 267 0.0 0.0 0.00 0.00 0.00 93 1026.5
20210518071841 8 267 0.0 0.0 0.00 0.00 0.00 93 1026.4
20210518071351 8 267 0.0 0.0 0.00 0.00 0.00 93 1026.4
20210518070840 8 267 0.0 0.0 0.00 0.00 0.00 93 1026.3
20210518070351 8 267 0.0 0.0 0.00 0.00 0.00 92 1026.4
20210518065842 8 267 0.0 0.0 0.00 0.00 0.00 92 1026.4
20210518065351 8 267 0.0 0.0 0.00 0.00 0.00 92 1026.4
20210518064840 8 267 0.0 0.0 0.00 0.00 0.00 92 1026.3
20210518064351 9 267 0.0 0.0 0.00 0.00 0.00 92 1026.4
20210518063840 9 267 0.0 0.0 0.00 0.00 0.00 92 1026.5
20210518063352 9 267 0.0 0.0 0.00 0.00 0.00 92 1026.4
20210518062841 9 267 0.0 0.0 0.00 0.00 0.00 92 1026.4
20210518062350 9 267 0.0 0.0 0.00 0.00 0.00 92 1026.4
20210518061839 9 267 0.0 0.0 0.00 0.00 0.00 92 1026.4
20210518061349 9 267 0.0 0.0 0.00 0.00 0.00 92 1026.4
20210518060839 9 267 0.0 0.0 0.00 0.00 0.00 92 1026.5
20210518060351 9 267 0.0 0.0 0.00 0.00 0.00 92 1026.5
20210518055855 9 267 0.0 0.0 0.00 0.00 0.00 91 1026.5
20210518055343 9 267 0.0 0.0 0.00 0.00 0.00 91 1026.6
20210518054853 9 267 0.0 0.0 0.00 0.00 0.00 91 1026.6
20210518054342 10 267 0.0 0.0 0.00 0.00 0.00 91 1026.6
20210518053853 10 267 0.0 0.0 0.00 0.00 0.00 91 1026.6
20210518053339 10 267 0.0 0.0 0.00 0.00 0.00 91 1026.7
20210518052846 10 267 0.0 0.0 0.00 0.00 0.00 91 1026.7
20210518052336 10 267 0.0 0.0 0.00 0.00 0.00 91 1026.7
20210518051846 10 267 0.0 0.0 0.00 0.00 0.00 91 1026.8
20210518050835 10 267 0.0 0.0 0.00 0.00 0.00 90 1026.8
20210518050346 10 267 0.0 0.0 0.00 0.00 0.00 90 1026.8
20210518045853 10 267 0.0 0.0 0.00 0.00 0.00 90 1026.7
20210518045344 10 267 0.0 0.0 0.00 0.00 0.00 90 1026.8
20210518044838 10 267 0.0 0.0 0.00 0.00 0.00 90 1026.8
20210518044348 10 267 0.0 0.0 0.00 0.00 0.00 90 1026.8
20210518043835 10 267 0.0 0.0 0.00 0.00 0.00 90 1026.8
20210518043347 10 267 0.0 0.0 0.00 0.00 0.00 90 1026.8
20210518042853 11 267 0.0 0.0 0.00 0.00 0.00 90 1026.8
20210518042342 11 267 0.0 0.0 0.00 0.00 0.00 90 1026.7
20210518041354 11 267 0.0 0.0 0.00 0.00 0.00 89 1026.7
20210518040845 11 267 0.0 0.0 0.00 0.00 0.00 89 1026.7
20210518040357 11 267 0.0 0.0 0.00 0.00 0.00 89 1026.7
20210518035843 11 267 0.0 0.0 0.00 0.00 0.00 88 1026.8
20210518035353 11 267 0.0 0.0 0.00 0.00 0.00 88 1026.8
20210518034842 11 267 0.0 0.0 0.00 0.00 0.00 88 1026.7
20210518034353 11 267 0.0 0.0 0.00 0.00 0.00 88 1026.7
20210518033843 11 267 0.0 0.0 0.00 0.00 0.00 88 1026.7
20210518033355 12 267 0.0 0.0 0.00 0.00 0.00 87 1026.8
20210518032840 12 267 0.0 0.0 0.00 0.00 0.00 87 1026.8
20210518032350 12 267 0.0 0.0 0.00 0.00 0.00 87 1026.8
20210518031839 12 267 0.0 0.0 0.00 0.00 0.00 86 1026.8
20210518031349 12 267 0.0 0.0 0.00 0.00 0.00 86 1026.8
20210518030838 12 267 0.0 0.0 0.00 0.00 0.00 86 1026.8
20210518030350 12 267 0.0 0.0 0.00 0.00 0.00 85 1026.8
20210518025836 12 267 0.0 0.0 0.00 0.00 0.00 85 1026.8
20210518025346 12 267 0.0 0.0 0.00 0.00 0.00 84 1026.8
20210518024836 13 267 0.0 0.0 0.00 0.00 0.00 85 1026.7
20210518024347 13 267 0.0 0.0 0.00 0.00 0.00 84 1026.7
20210518023836 13 267 0.0 0.0 0.00 0.00 0.00 84 1026.7
20210518023348 13 267 0.0 0.0 0.00 0.00 0.00 83 1026.8
20210518022855 13 267 0.0 0.0 0.00 0.00 0.00 82 1026.8
20210518022345 13 267 0.0 0.0 0.00 0.00 0.00 82 1026.9
20210518021835 13 267 0.0 0.0 0.00 0.00 0.00 82 1027.0
20210518021345 13 267 0.0 0.0 0.00 0.00 0.00 82 1027.0
20210518020840 14 267 0.0 0.0 0.00 0.00 0.00 82 1027.0
20210518020351 14 267 0.0 0.0 0.00 0.00 0.00 81 1026.8
20210518015837 14 267 0.0 0.0 0.00 0.00 0.00 82 1026.8
20210518015348 15 267 0.0 0.0 0.00 0.00 0.00 82 1026.8
20210518014838 15 267 0.0 0.0 0.00 0.00 0.00 82 1026.8
20210518014348 15 267 0.0 0.0 0.00 0.00 0.00 81 1026.8
20210518013839 15 267 0.0 0.0 0.00 0.00 0.00 80 1026.8
20210518013352 15 267 0.0 0.0 0.00 0.00 0.00 79 1026.7
20210518012839 15 267 0.0 0.0 0.00 0.00 0.00 80 1026.6
20210518012349 15 267 0.0 0.0 0.00 0.00 0.00 79 1026.5
20210518011839 15 267 0.0 0.0 0.00 0.00 0.00 79 1026.4
20210518011349 16 267 0.0 0.0 0.00 0.00 0.00 79 1026.4
20210518010838 16 267 0.0 0.0 0.00 0.00 0.00 78 1026.4
20210518010349 16 267 0.0 0.0 0.00 0.00 0.00 79 1026.3
20210518005855 16 267 0.0 0.0 0.00 0.00 0.00 77 1026.3
20210518005346 16 267 0.0 0.0 0.00 0.00 0.00 77 1026.2
20210518004855 16 267 0.0 0.0 0.00 0.00 0.00 76 1026.2
20210518004345 16 267 0.0 0.0 0.00 0.00 0.00 75 1026.2
20210518003855 17 267 0.0 0.0 0.00 0.00 0.00 74 1026.3
20210518003347 17 267 0.0 0.0 0.00 0.00 0.00 72 1026.3
20210518002854 17 267 0.0 0.0 0.00 0.00 0.00 72 1026.2
20210518002344 17 267 0.0 0.0 0.00 0.00 0.00 71 1026.1
20210518001854 17 267 0.0 4.8 0.00 0.00 0.00 67 1026.0
20210518001344 18 267 1.6 4.8 0.00 0.00 0.00 69 1026.0
20210518000836 18 267 1.6 3.2 0.00 0.00 0.00 67 1025.9
20210518000348 18 267 0.0 9.7 0.00 0.00 0.00 62 1025.9
20210517235839 19 267 1.6 9.7 0.00 0.00 0.00 60 1026.1
20210517235349 19 188 0.0 4.8 0.00 0.00 0.00 62 1026.0
20210517234840 20 239 0.0 0.0 0.00 0.00 0.00 56 1026.2
20210517234350 20 239 0.0 0.0 0.00 0.00 0.00 56 1026.0
20210517233839 20 239 0.0 0.0 0.00 0.00 0.00 54 1026.0
20210517233351 20 227 0.0 0.0 0.00 0.00 0.00 54 1025.8
20210517232837 20 227 0.0 0.0 0.00 0.00 0.00 54 1025.8
20210517232347 20 227 0.0 0.0 0.00 0.00 0.00 56 1025.7
20210517231837 20 227 0.0 1.6 0.00 0.00 0.00 57 1025.6
20210517231346 20 227 0.0 4.8 0.00 0.00 0.00 55 1025.5
20210517230837 20 227 1.6 4.8 0.00 0.00 0.00 55 1025.5
20210517230350 20 227 0.0 3.2 0.00 0.00 0.00 57 1025.4
20210517225837 21 227 0.0 4.8 0.00 0.00 0.00 51 1025.3
20210517225346 21 227 0.0 4.8 0.00 0.00 0.00 50 1025.3
20210517224837 21 227 0.0 4.8 0.00 0.00 0.00 50 1025.3
20210517224346 21 227 0.0 9.7 0.00 0.00 0.00 52 1025.3
20210517223855 21 227 1.6 0.0 0.00 0.00 0.00 48 1025.2
20210517223345 22 173 0.0 8.0 0.00 0.00 0.00 50 1025.4
20210517222852 22 161 1.6 6.4 0.00 0.00 0.00 48 1025.4
20210517222343 22 232 1.6 6.4 0.00 0.00 0.00 48 1025.3
20210517221854 22 229 1.6 8.0 0.00 0.00 0.00 49 1025.3
20210517221344 22 230 1.6 9.7 0.00 0.00 0.00 49 1025.3
20210517220854 22 217 3.2 9.7 0.00 0.00 0.00 45 1025.2
20210517220345 22 188 3.2 9.7 0.00 0.00 0.00 46 1025.2
20210517215852 22 79 3.2 9.7 0.00 0.00 0.00 47 1025.2
20210517215344 22 190 6.4 9.7 0.00 0.00 0.00 45 1025.2
20210517214839 22 178 1.6 11.3 0.00 0.00 0.00 47 1025.1
20210517214349 22 133 4.8 11.3 0.00 0.00 0.00 49 1025.1
20210517213839 22 236 1.6 8.0 0.00 0.00 0.00 48 1025.1
20210517213351 22 181 1.6 8.0 0.00 0.00 0.00 49 1025.0
20210517212838 22 207 1.6 8.0 0.00 0.00 0.00 45 1024.9
20210517212348 22 229 1.6 9.7 0.00 0.00 0.00 45 1024.9
20210517211837 22 209 1.6 6.4 0.00 0.00 0.00 49 1024.9
20210517211347 22 198 1.6 4.8 0.00 0.00 0.00 49 1025.0
20210517210838 22 198 0.0 4.8 0.00 0.00 0.00 47 1024.9
20210517210351 23 198 0.0 6.4 0.00 0.00 0.00 43 1024.9
20210517205837 23 193 0.0 6.4 0.00 0.00 0.00 40 1024.9
20210517205347 23 193 3.2 6.4 0.00 0.00 0.00 39 1024.8
20210517204839 23 192 1.6 9.7 0.00 0.00 0.00 40 1024.8
20210517204350 23 196 1.6 9.7 0.00 0.00 0.00 42 1024.8
20210517203840 23 228 3.2 8.0 0.00 0.00 0.00 39 1024.8
20210517203351 24 213 4.8 11.3 0.00 0.00 0.00 38 1024.7
20210517202839 24 215 3.2 9.7 0.00 0.00 0.00 37 1024.7
20210517202351 24 216 4.8 9.7 0.00 0.00 0.00 35 1024.6
20210517201840 25 205 1.6 8.0 0.00 0.00 0.00 37 1024.6
20210517201350 25 116 3.2 8.0 0.00 0.00 0.00 37 1024.7
20210517200853 25 194 1.6 6.4 0.00 0.00 0.00 35 1024.8
20210517200344 25 149 3.2 8.0 0.00 0.00 0.00 36 1024.8
20210517195850 25 196 3.2 8.0 0.00 0.00 0.00 38 1024.8
20210517195339 25 188 3.2 8.0 0.00 0.00 0.00 39 1024.9
20210517194848 25 207 3.2 8.0 0.00 0.00 0.00 34 1025.0
20210517194338 25 219 1.6 11.3 0.00 0.00 0.00 38 1025.1
20210517193848 25 220 3.2 11.3 0.00 0.00 0.00 39 1025.1